Starlink 30564

operational
NORAD ID: 58043 Int'l Des: 2023-156 Owner: SPXS Country: US Constellation: starlink
LEOCIRCULAR

Über Starlink 30564

Beschreibung wird geladen...

Live-Position

3D-Globus wird geladen...

Nächste Überflüge

Höhenverlauf

Altitude vs Time

uPlot chart will show altitude changes over time

Zweizeiliger Elementsatz

1 58043U 23156R 26034.21463035 -.00059168 00000-0 -20047-2 0 9992
2 58043 53.1570 238.6229 0001383 74.7778 285.3376 15.30147165131035
Epoch: 3. Feb. 2026 • Age: 30 hours

Aktueller Status

Höhe 487.1 km
Geschwindigkeit 7.62 km/s
Subsatellitenpunkt -34.18°S, 93.27°W
Startdatum 9. Okt. 2023
Alter 2.3 years
Typ internet

Technische Details

Klassifizierung Payload
Masse 730.00 kg
Trockenmasse 700.00 kg
Gesamtmasse 730.00 kg
Länge 0.30 m
Durchmesser 4.10 m
Spannweite 29.00 m
Form Box + pan
Hersteller SPXS
Bus-Typ Starlink V2M
Phasenstatus In Orbit
Besitzer/Staat SPXS/US

Große Konstellationen

Loading constellations...